Regional Weather Roundup
Issued by NWS

Home | Current Version | Previous Version | Graphics & Text | Print | Product List | Glossary On
Versions: 1 2 3 4 5 6 7 8 9 10 11 12 13 14 15 16 17 18 19 20 21 22 23 24 25 26 27 28 29 30 31 32 33 34 35 36 37 38 39 40 41 42 43 44 45 46 47 48 49 50
000
ASUS45 KBOU 162207
RWRCO

WEATHER ROUNDUP FOR COLORADO
NATIONAL WEATHER SERVICE DENVER/BOULDER CO
400 PM MDT TUE SEP 16 2014

NOTE: "FAIR" INDICATES FEW OR NO CLOUDS BELOW 12000 FEET WITH NO
SIGNIFICANT WEATHER AND/OR OBSTRUCTIONS TO VISIBILITY.

COZ001>005-013-030-031-162300-
...NORTHWEST COLORADO...

CITY           SKY/WX    TMP DP  RH WIND       PRES   REMARKS
CRAIG          SUNNY     82  32  16 SW5       30.19F
HAYDEN         SUNNY     81  28  15 NW3       30.22F
MEEKER         MOSUNNY   82  30  15 SW13      30.20F
MOUNT WERNER   NOT AVBL
STEAMBOAT SPGS PTSUNNY   77  32  19 W8        30.24F
WALDEN         PTSUNNY   73  30  20 W7        30.33F
$$

COZ006>008-011-162300-
...WEST CENTRAL VALLEYS...

CITY           SKY/WX    TMP DP  RH WIND       PRES   REMARKS
GRAND JUNCTION MOSUNNY   85  44  23 W7        30.09F
MONTROSE       MOSUNNY   86  35  16 NW10      30.17F
EAGLE          MOSUNNY   81  34  18 CALM      30.22F
RIFLE          MOSUNNY   85  38  18 CALM      30.15F
DELTA          MOSUNNY   90  37  15 SE7       30.12F
NUCLA          MOSUNNY   82  36  18 CALM      30.20F
$$

COZ017>023-064>068-162300-
...SOUTHWEST COLORADO...

CITY           SKY/WX    TMP DP  RH WIND       PRES   REMARKS
DURANGO        MOSUNNY   82  41  23 N20G28    30.22F
CORTEZ         PTSUNNY   83  44  25 VRB3      30.17F
PAGOSA SPRINGS PTSUNNY   74  30  19 N3        30.29F
TELLURIDE      NOT AVBL
WOLF CREEK PAS CLOUDY    50  34  53 S6        30.62S
$$

COZ009-010-012-014-032>034-037-058>063-162300-
...CENTRAL COLORADO...

CITY           SKY/WX    TMP DP  RH WIND       PRES   REMARKS
ASPEN          MOSUNNY   76  27  16 NW10G18   30.30F
BUENA VISTA    MOSUNNY   74  27  17 W5        30.29F
COPPER MTN     PTSUNNY   61  27  27 W16G23    30.63F
BERTHOUD PASS  PTSUNNY   52  50  93 NW8G18    30.67S
COTTONWOOD PAS PTSUNNY   72  21  15 S8        30.45F
GUNNISON       SUNNY     73  36  25 SW6       30.31F
KREMMLING      CLOUDY    77  28  16 CALM      30.29F
LEADVILLE      CLOUDY    66  27  23 NW17      30.45F
MONARCH PASS   MOSUNNY   54  30  40 W7        30.72F
SALIDA         MOSUNNY   80  29  16 CALM      30.32F
SUNLIGHT       MOSUNNY   63  32  31 N5        30.57F
WILKERSON PASS NOT AVBL
$$

COZ069>075-162300-
...SAN LUIS VALLEY/SANGRE DE CRISTO MOUNTAINS...

CITY           SKY/WX    TMP DP  RH WIND       PRES   REMARKS
ALAMOSA        SUNNY     79  26  14 VRB6      30.27F
LA VETA PASS   NOT AVBL
SAGUACHE       MOSUNNY   79  32  18 SW9       30.28F
$$

COZ035-036-038>040-162300-
...NORTHERN COLORADO FRONT RANGE...

CITY           SKY/WX    TMP DP  RH WIND       PRES   REMARKS
DENVER INTL AP MOSUNNY   85  37  18 NE8       30.12F
DMNS CITY PARK   N/A     87  36  16 NE6G14    30.10F
AURORA         MOSUNNY   86  35  16 NW8       30.14F
FRONT RANGE AP MOSUNNY   86  36  16 N8        30.14F
ERIE MUNI ARPT MOSUNNY   87  32  14 E6        30.09S
BOULDER MUN AP MOSUNNY   82  37  20 CALM      30.10S
CENTENNIAL     MOSUNNY   84  33  16 VRB3      30.15F
BROOMFIELD     MOSUNNY   84  34  16 VRB5      30.13F
FORT COLLINS   SUNNY     88  37  16 W6        30.06S
LONGMONT       SUNNY     88  37  16 E3        30.10F
$$

COZ041-046-047-076>085-087-088-162300-
...PIKES PEAK/PALMER DIVIDE AND SOUTHERN FOOTHILLS...

CITY           SKY/WX    TMP DP  RH WIND       PRES   REMARKS
COLO. SPRINGS  MOSUNNY   85  29  13 SE10      30.17F
A. F. ACADEMY  MOSUNNY   81  31  16 E7        30.18F
ELLICOTT       NOT AVBL
FALCON         PTSUNNY   83  30  14 SE5       30.23F
FORT CARSON    MOSUNNY   84  35  17 W5        30.14F
LIMON          SUNNY     86  31  13 VRB3      30.12F
MONUMENT HILL  MOSUNNY   75  34  22 N8        30.24S
TRINIDAD       PTSUNNY   83  38  20 E7        30.15F
$$

COZ042>045-048>051-090-091-162300-
...NORTHEAST COLORADO...

CITY           SKY/WX    TMP DP  RH WIND       PRES   REMARKS
GREELEY ARPT   SUNNY     90  34  13 W8        30.06F
AKRON          SUNNY     85  34  16 NW20G30   30.07S
BURLINGTON     SUNNY     90  36  14 NW15      30.03F
WRAY           SUNNY     91  39  16 N17G23    30.00S
STERLING       SUNNY     90  43  19 NE14      30.02F
HOLYOKE        SUNNY     86  46  25 N13G18    30.01S
FORT MORGAN    SUNNY     88  32  13 N13G20    30.06F
$$

COZ086-089-092>099-162300-
...SOUTHEAST COLORADO...

CITY           SKY/WX    TMP DP  RH WIND       PRES   REMARKS
PUEBLO         MOSUNNY   90  35  14 SE10      30.05F
LA JUNTA       SUNNY     90  42  18 E9        30.04F
LAMAR          SUNNY     89  49  25 VRB5      30.00F
SPRINGFIELD      N/A     86  55  34 S13       30.06F
$$


USA.gov is the U.S. government's official web portal to all federal, state and local government web resources and services.